Other Public Products
Issued by NWS Grand Forks, ND

Home | Current Version | Previous Version | Text Only | Print | Product List | Glossary Off
Versions: 1 2 3 4 5 6 7 8 9 10 11 12 13 14 15 16 17 18 19 20 21 22 23 24 25 26 27 28 29 30 31 32 33 34 35 36 37 38 39 40 41 42 43 44 45 46 47 48 49 50

794
FPUS83 KFGF 211510
OPUFGF
PRAIRIE TO PINES WEATHER ROUNDUP
NATIONAL WEATHER SERVICE EASTERN NORTH DAKOTA/GRAND FORKS ND
900 AM CST SAT JAN 21 2017

 **SATELLITE DATA USED TO AUGMENT SKY COVER AT AUTOMATED STATIONS**
 *****  WEATHER ACROSS EASTERN NORTH DAKOTA  *****

CITY           SKY/WX    TMP DP  RH WIND       PRES   REMARKS
GRAND FORKS    CLOUDY    36  32  85 SE9       29.42R
GRAND FORKS AF CLOUDY    32  32 100 SE7       29.41S
GRAND CITY NWS NOT AVBL
BUXTON         NOT AVBL
DEVILS LAKE    FOG       33  32  96 E7        29.36S VSB 1/4
FARGO          CLOUDY    38  34  85 CALM      29.40R
WAHPETON ARPT  CLOUDY    34  32  93 SE7       29.41R
$$

 *****  WEATHER ACROSS CENTRAL AND WESTERN NORTH DAKOTA  *****

CITY           SKY/WX    TMP DP  RH WIND       PRES   REMARKS
JAMESTOWN      FOG       32  32 100 SE8       29.34S VSB<1/4 WCI  25
BISMARCK       LGT SNOW  28  26  92 W6        29.35R FOG     WCI  22
MINOT          CLOUDY    28  26  92 S3        29.32S FOG
MINOT AFB      CLOUDY    26  26  96 CALM      29.32S FOG
GARRISON         N/A     21  19  92 CALM      29.32S
WILLISTON      CLOUDY    27  24  89 S3        29.33R
DICKINSON      MOCLDY    26  22  84 W10       29.29R WCI  16
HETTINGER      FAIR      24  21  88 W9        29.33R WCI  14
$$

 *****  OTHER OBSERVATIONS NORTHEAST NORTH DAKOTA  *****

CITY           SKY/WX    TMP DP  RH WIND       PRES   REMARKS
WALHALLA       NOT AVBL
LANGDON        NOT AVBL
CAVALIER       CLOUDY    32  32 100 SE6       29.42S FOG
GRAFTON          N/A     34  34 100 SE8       29.44R
CANDO          NOT AVBL
FORT TOTTEN      N/A     33  33 100 SE5       29.95S
ROLLA            N/A    N/A N/A N/A MISG        N/A
RUGBY          FOG       32  32 100 SE7       29.34R VSB 3/4
 ***** THE ABOVE OBSERVATIONS ARE NON NWS ARE NOT QUALITY
        CONTROLLED AND MAY MIS-REPORT RAIN FOR SNOW...
$$

 *****  OTHER OBSERVATIONS SOUTHEAST NORTH DAKOTA *****

CITY           SKY/WX    TMP DP  RH WIND       PRES   REMARKS
COOPERSTOWN    FOG       34  34 100 SE8       29.37R VSB<1/4
VALLEY CITY    FOG       32  32 100 SE6       29.38R VSB<1/4
OAKES          NOT AVBL
GWINNER        CLOUDY    34  34 100 E9        29.36S VSB 1
SHEYENNE NWR     N/A     33  33 100 SE6       29.95S
BUFFALO        NOT AVBL
WYNDMERE       NOT AVBL
 ***** THE ABOVE OBSERVATIONS ARE NON NWS ARE NOT QUALITY
       CONTROLLED AND MAY MIS-REPORT RAIN FOR SNOW...
$$

  *****  WEATHER ACROSS NORTHERN MINNESOTA  *****

CITY           SKY/WX    TMP DP  RH WIND       PRES   REMARKS
FLAG ISLAND    FOG       34  32  93 SE5       29.49R VSB 1/2
WARROAD        CLOUDY    34  30  86 E6        29.48S
ROSEAU         DRIZZLE   36  30  80 SE7       29.46S
HALLOCK        CLOUDY    36  34  93 SE6       29.43S
THF RVR FALLS  CLOUDY    34  33  96 E12       29.44S
HALSTAD        NOT AVBL
FOSSTON        CLOUDY    34  32  93 E10       29.43S
BAUDETTE       CLOUDY    33  33 100 E7        29.47S FOG
WASKISH        CLOUDY    36  34  93 E5        29.47S
CROOKSTON      CLOUDY    36  34  93 SE8       29.43S
$$
  *****  WEATHER ACROSS CENTRAL AND WEST MINNESOTA  *****

CITY           SKY/WX    TMP DP  RH WIND       PRES   REMARKS
BEMIDJI        FOG       32  32 100 E3        29.44F VSB 1/2
PARK RAPIDS    FOG       34  32  92 E5        29.43R VSB 1/4
WADENA         FOG       32  32 100 E7        29.42S VSB 1/4
DETROIT LAKES  DRIZZLE   34  34 100 SE3       29.42S
MOORHEAD       CLOUDY    36  32  87 E5        29.41S
FERGUS FALLS   CLOUDY    36  36 100 E9        29.44R
ELBOW LAKE     CLOUDY    33  33 100 SE10      29.41R FOG     WCI  25
MORRIS MN      FOG       34  34 100 E10       29.39R VSB 1/2
STAPLES        FOG       34  34 100 E3        29.44R VSB 3/4
WHEATON        FOG       41  41 100 E8        29.41S VSB 3/4
$$
  *****  WEATHER ELSEWHERE ACROSS MINNESOTA  *****

CITY           SKY/WX    TMP DP  RH WIND       PRES   REMARKS
DULUTH         DRZL/FOG  34  34 100 E9        29.47F VSB 1/16
INTRNTL FALLS  FOG       33  32  96 E7        29.50S VSB 1
ELY            LGT RAIN  34  34 100 NE3       29.50F
CLOQUET        FOG       34  34 100 E8        29.47S VSB<1/4
BRAINERD       FOG       33  33 100 VRB5      29.45R VSB 1/4
HIBBING        FOG       32  32 100 E5        29.47F VSB 3/4
ALEXANDRIA     FOG       33  33 100 E12       29.41R VSB 1   WCI  24
SAINT CLOUD    FOG       34  34 100 E6        29.42S VSB 1/4
MINNEAPOLIS    DRIZZLE   35  33  92 NE5       29.42S FOG
$$

  *****  WEATHER ACROSS SOUTH DAKOTA  *****

CITY           SKY/WX    TMP DP  RH WIND       PRES   REMARKS
SIOUX FALLS    DRZL/FOG  36  36 100 SW3       29.35S VSB 1/4
BROOKINGS      LGT RAIN  34  33  96 SE6       29.33S VSB 1/4
WATERTOWN      CLOUDY    34  34 100 SE6       29.33R FOG
HURON          CLOUDY    27  26  96 W5        29.36R WCI  22
SISSETON         N/A     33  33 100 S6        29.37R
ABERDEEN       CLOUDY    29  25  85 CALM      29.35S FOG
MITCHELL       CLOUDY    29  27  92 W10       29.37S WCI  20
PIERRE         CLOUDY    26  25  96 NW8       29.35R FOG     WCI  18
MOBRIDGE       CLOUDY    27  23  85 W6        29.31S FOG     WCI  20
RAPID CITY     FAIR      30  26  85 W9        29.36R WCI  22
$$

  *****  SOME WEATHER IN NEARBY STATES *****

CITY           SKY/WX    TMP DP  RH WIND       PRES   REMARKS
GLASGOW MT     FOG       15  13  91 W10       29.36R VSB<1/4 WCI   2
GREAT FALLS MT FAIR      15  12  88 W6        29.35R WCI   6
CHEYENNE WY    FAIR      19  12  74 W6        29.36R WCI  11
SCOTTSBLUFF NE FAIR      21  16  81 NW5       29.41R WCI  15
OMAHA NE       CLOUDY    40  36  86 SW7       29.43R FOG
DES MOINES IA  FOG       44  43  96 SW8       29.42R VSB 1/4
DAVENPORT IA   FAIR      46  43  89 S10       29.44R
CHICAGO IL     PTSUNNY   49  47  93 S8        29.51F FOG
EAU CLAIRE WI  LGT RAIN  34  34 100 NE5       29.44S FOG
LA CROSSE WI   LGT RAIN  39  36  89 SE5       29.43S
$$

  *****  SOME NATIONAL WEATHER *****

CITY           SKY/WX    TMP DP  RH WIND       PRES   REMARKS
LA GUARDIA NY  PTSUNNY   48  42  80 SW8       29.89R
RALEIGH NC     FOG       52  51  97 E5        29.92S VSB 1/8
ATLANTA GA     HVY RAIN  60  58  92 NE12      29.77F FOG
NEW ORLEANS LA FAIR      63  58  83 E10       29.74R
OKLAHOMA CITY  CLOUDY    43  38  82 S5        29.55S
ALBUQUERQUE NM FLURRIES  32  32 100 W8        29.47  WCI  25
SALT LAKE CITY SNOW      33  31  92 W8        29.37R VSB 1/2
LOS ANGELES CA FAIR      50  41  71 N8        29.81R
BOISE ID       CLOUDY    34  32  92 NW3       29.43R
SEATTLE WA     CLOUDY    41  37  86 W5        29.29R
$$

*** WEATHER ACROSS MANITOBA...SASKATCHEWAN AND ONTARIO ***
                ***ONTARIO***

CITY           SKY/WX    TMP DP  RH WIND       PRES   REMARKS
GERALDTON      LGT RAIN  32  32 100 SE5       29.63S
THUNDER BAY    DRZL/FOG  34  34 100 NE6       29.59F VSB 3/8
SIOUX LOOKOUT  LGT SNOW  34  32  93 E5        29.54F FOG
TORONTO        CLOUDY    37  37 100 CALM      29.79R FOG
BIG TROUT LK   FLURRIES  28  27  93 SE6       29.70F WCI  22
PICKLE LAKE    LGT RAIN  32  32 100 E6        29.58F FOG
DRYDEN         LGT RAIN  34  34 100 SE5       29.52S
KENORA         NOT AVBL
$$
                *** MANITOBA***

CITY           SKY/WX    TMP DP  RH WIND       PRES   REMARKS
BRANDON        CLOUDY    32  32 100 SE9       29.37R FOG     WCI  24
DAUPHIN        CLOUDY    32  32 100 SE10      29.39R WCI  24
ISLAND LAKE    FRZ RAIN  32  32 100 E5        29.58S FOG
PILOT MOUND      N/A     32  32 100 SE12        N/A  WCI  23
THE PAS        DRIZZLE   32  32 100 E6        29.42F FOG
THOMPSON       LGT SNOW  28  27  93 E7        29.58R FOG     WCI  21
WINNIPEG       CLOUDY    34  34 100 SE10      29.45R FOG
LYNN LAKE      FLURRIES  27  27 100 E7        29.54S WCI  19
CHURCHILL      CLOUDY    16  16 100 SE16G23   29.83R WCI   0
GILLAM         LGT SNOW  28  27  93 E6        29.68F WCI  22
$$
                ***SASKATCHEWAN***

CITY           SKY/WX    TMP DP  RH WIND       PRES   REMARKS
ESTEVAN        FOG       16  14  93 CALM      29.31R VSB 1/2
KINDERSLEY     FOG       25  23  93 NW9       29.35S VSB 1/8 WCI  15
LLOYDMINSTER   FOG       19  19 100 N6        29.41R VSB 1/2 WCI  11
PRINCE ALBERT  CLOUDY    27  25  93 NE13      29.39R WCI  16
REGINA         FOG       19  18  93 E5        29.30R VSB 3/8 WCI  13
YORKTON        LGT SNOW  28  28 100 SE5       29.33R WCC1F1C2F2C3F3C4F4C5F5C6F6C7F7C8F8C9F9CaFaCbFbCcFcCdFdCe!



USA.gov is the U.S. government's official web portal to all federal, state and local government web resources and services.